CAPE
2303 2205 2212 2461 2753 2773 2504 2618 2463 2206 2042 1782 2142 2348 1687 1814 1864 1750 2039 2260 2743 2953 2968 3298 3517 3420 3160 3235 3414 3223 3050 2979 2726 2865 2849 2829 2953 3009 2754 2570 2510 2556
2376 2301 2362 2462 2788 3070 2956 2566 2519 2168 2304 2113 1779 1843 2026 2043 2278 2009 2230 2412 2773 2947 3140 3094 3324 3480 3281 2768 3240 3320 3414 3308 3166 2751 2828 3047 3107 3054 2899 2864 2714 2664
2323 2365 2441 2466 2566 3068 2920 2790 2600 2372 2321 2264 1869 1586 1882 1920 2542 2659 2486 2517 2667 2546 2970 3027 3096 3432 3327 2994 3034 3236 3176 3595 3402 2572 2716 3129 2962 2804 2991 2563 2621 2792
2425 2465 2388 2378 2653 2892 2968 2879 2735 2751 2275 2586 2203 1579 1541 1681 2189 2778 2902 2857 2735 2430 2450 2906 2812 2764 3139 3114 3136 3197 2913 3372 3330 3050 2891 3342 3498 3084 2774 2738 2664 2403
2475 2485 2431 2568 2612 2816 3096 2976 2707 2812 2363 2215 2351 1856 1802 1832 2170 2280 2667 2932 2846 2601 2625 2666 2799 2638 2910 3126 3279 3262 2828 3042 3141 3329 3494 3603 3668 3548 3247 2799 2886 2917
2553 2646 2748 2734 2656 2887 3136 3019 2880 2745 2642 1844 2408 1964 1857 1890 2085 2266 2481 2853 2924 2440 1832 2399 2801 2743 2775 3123 3304 3226 2768 2424 2225 3151 3402 3214 3162 2819 2905 2837 3055 3052
2546 2671 2669 2655 2766 2916 3189 3252 3065 2745 2663 2052 2251 2055 2089 2042 1989 2372 2457 2658 2275 2311 1788 2013 2614 2695 2727 2856 3315 3305 3151 2833 2371 2890 3294 3278 3222 3165 2860 2903 3152 3356
2680 2686 2795 2901 2835 2987 3149 3220 3178 2877 2863 2587 1943 2215 2131 2286 2463 2230 2260 2387 2249 2088 2113 1869 2558 2773 2383 2468 3182 3321 3261 2950 2734 2632 3353 3441 3383 3309 3386 3400 3173 3598
2899 3003 3010 2934 2734 3076 3036 2920 3072 3209 3026 2826 2211 2171 2224 2380 2770 2504 2493 2638 2446 2224 2543 2341 2701 2697 2598 2510 2842 3268 3400 2796 2532 2877 3279 3441 3320 3248 3306 3403 3447 3605
3179 3036 2836 2839 2948 2890 2852 2612 2953 3509 3140 2886 2539 2091 2391 2488 2579 2776 2884 2969 2705 2541 2817 2758 2789 3004 2962 2565 2570 3061 3418 3400 2885 2883 3169 3240 2889 2932 3059 3160 3317 3570
3019 2935 2787 2871 2778 2600 2693 2681 2762 2963 3121 3006 2720 2062 2036 2585 2635 2883 3201 3377 3050 2930 3153 3302 3140 3261 3318 2579 2485 2875 3408 3485 3308 3131 3277 3478 3280 3179 3239 3375 3400 3377
3099 2805 2784 2779 2709 2524 2571 2747 2562 2290 2778 2970 2738 2258 1946 2418 2896 2828 3058 3565 3718 3392 3356 3731 3550 3470 3424 3054 2361 2559 3057 3190 3166 3150 3112 3580 3559 3464 3370 3334 3296 3444
3296 2776 2738 2894 2954 2544 2657 2704 2345 2026 2177 2779 2750 2351 1999 2088 2778 3076 2878 3417 3808 3817 3740 3918 3911 3713 3910 3696 2916 2515 2889 3176 2699 2962 3240 3351 3608 3504 3075 3052 3207 3119
3552 3250 2635 3048 3051 3138 2819 2481 2285 2010 1989 2309 2697 2464 2134 2007 2253 2866 2952 3101 3674 3855 3829 4026 4210 3963 4150 4119 3640 2823 2520 3092 3176 2660 2831 3235 3186 3387 2682 2050 2186 2542
3932 3474 3016 3097 3329 3332 2895 2597 2523 2411 2260 2498 2897 2694 2292 1918 1888 2232 2969 3079 3353 3689 3760 3602 3960 3938 3978 4089 4165 3474 2789 2672 3348 3177 2813 2811 3038 2748 2627 2289 1667 1608
4246 4103 3551 3444 3398 3527 3582 3081 2775 2679 2321 2372 2895 2928 2748 2421 2163 1970 2452 3108 3278 3637 3720 3516 3599 4001 4008 3739 3974 3923 3242 2499 2945 3374 3164 2642 2854 2938 2286 2183 2194 1682
4398 4335 3922 3945 3860 3736 3675 3578 3508 3241 3308 3360 3296 3271 3388 3322 2583 2038 2033 2529 3162 3475 3710 3652 3285 3570 3735 3668 3684 3618 3576 3213 2665 3191 3635 3246 2564 3024 2900 1985 1834 2175
4585 4475 4281 4148 4129 4098 4162 3904 3636 3559 3618 3531 3150 3330 3721 3229 2783 2590 2722 2194 2696 3210 3485 3539 3420 3098 3384 3498 3553 3513 3584 3680 2797 2678 3138 3328 3189 2587 2797 2676 1942 1508
4806 4825 4576 4312 4400 4510 4477 4295 4029 3878 3655 3497 3274 3561 3640 3676 3602 2963 2959 2709 2344 3043 3001 3314 3415 2849 3059 3326 3411 3396 3370 3484 2788 2550 2442 3064 3260 3026 2500 2842 3014 2302
5037 4939 4711 4659 4750 4746 4775 4536 4254 4143 4014 3838 3777 3930 4034 3986 3477 3416 3308 3562 3015 2994 3598 3092 3429 2976 2890 3072 3181 3179 3153 3293 3222 2518 2559 2444 2860 3186 3024 2870 3241 3387
4936 5116 5017 4978 5021 4938 4951 4815 4606 4512 4343 4185 3963 3936 4145 4276 3962 3792 3755 3732 3312 2978 3189 2909 2800 3173 3050 2981 2962 2969 2905 2758 3167 2559 2475 2678 2826 3128 3683 3480 3534 3670
4782 4792 5006 5032 5086 5066 5044 4892 4776 4681 4599 4336 3984 3642 3933 4187 4325 3966 4024 3987 3862 3469 3036 3152 2678 2857 3090 3097 2998 2818 2733 2532 2847 2751 2765 2755 2918 3113 3390 3958 4062 4112
4737 4674 5056 4998 5096 5038 5003 4928 4884 4853 4662 4558 4176 3730 3673 3975 4283 3950 4107 4136 4035 3968 3498 3174 3077 2476 2698 2964 2962 2884 2662 2732 2970 3083 3199 3119 3163 3246 3379 3603 3933 4288
4888 4904 5014 4975 5048 5069 5004 4891 4879 4840 4675 4695 4452 3901 3218 3450 3860 4029 3990 4051 3937 4098 3828 3736 3280 4430 2575 2633 2802 2749 2652 3084 3258 3314 3382 3424 3411 3474 3571 3787 3922 4173
4833 4872 4990 4972 5066 5023 4837 4872 4926 4907 4675 4689 4318 3976 3464 3172 3307 3591 3758 3881 3932 3956 3993 3711 3523 4442 2883 2657 2515 2555 2538 3426 3422 3439 3465 3458 3490 3682 3807 3762 3897 4219
4712 4987 5066 4917 5056 4926 4934 4968 4733 4619 4642 4516 4206 3991 3596 3199 2970 3096 3379 3461 3480 3629 3645 3772 3888 3528 3082 2999 2824 2611 2467 3388 3647 3513 3484 3596 3810 3844 4090 3950 3944 4111
Wind_Speed
6 6 6 6 7 8 7 6 5 5 5 4 3 3 4 4 5 6 7 7 8 9 8 8 7 7 6 6 5 6 7 7 8 6 6 5 4 4 2 2 1 0
6 6 8 7 8 8 9 8 7 7 6 5 5 5 6 6 6 7 7 8 8 10 10 10 9 9 9 8 8 9 9 9 11 10 9 9 7 6 5 3 3 1
8 7 7 6 7 6 6 9 9 9 8 5 5 7 7 7 6 6 6 6 7 7 7 8 8 7 8 8 8 8 8 9 10 10 10 11 11 10 8 6 4 4
8 8 9 8 8 8 9 10 10 10 9 7 6 8 9 8 8 5 5 4 3 4 5 5 6 6 6 6 6 6 7 8 8 8 8 9 11 12 11 9 6 3
10 10 11 11 11 11 11 10 9 10 8 8 8 9 10 12 8 6 5 3 2 1 2 4 5 5 6 6 6 6 7 7 7 8 8 9 10 11 11 11 9 7
13 14 14 13 13 12 11 10 10 11 9 8 9 10 11 10 10 7 5 3 2 0 2 4 5 6 7 7 7 6 6 6 8 9 9 9 9 10 10 11 11 10
14 15 14 15 13 12 12 12 13 12 11 10 11 12 12 10 10 9 7 6 3 3 2 4 5 6 7 7 8 7 6 6 6 10 10 9 9 9 10 11 11 11
17 17 17 18 15 14 13 14 14 13 12 11 11 12 13 12 10 10 9 8 6 5 5 5 7 7 8 8 8 8 7 6 6 8 10 9 9 10 10 9 9 10
21 20 20 18 16 16 14 14 15 13 13 12 12 14 14 14 13 11 12 10 8 8 8 7 8 8 7 8 8 8 7 6 7 9 10 10 10 10 9 9 9 9
24 22 20 19 18 17 15 15 16 16 15 13 13 15 16 16 15 13 14 13 10 10 9 8 10 9 8 8 9 9 7 6 6 9 10 10 9 9 9 8 8 8
25 23 21 20 19 18 17 16 17 17 17 15 15 15 16 18 17 16 16 15 12 11 11 10 10 10 9 8 9 9 8 8 7 8 10 10 10 9 8 7 7 7
25 24 22 20 19 19 19 19 18 18 19 19 17 16 16 18 18 17 17 16 15 13 12 11 11 11 10 9 9 10 9 8 8 8 9 11 11 10 9 8 7 7
26 24 23 22 22 21 22 21 20 19 20 20 20 18 17 18 19 18 18 18 16 15 13 13 12 11 12 11 9 9 10 9 8 10 10 11 11 11 11 10 9 7
26 26 24 25 24 25 24 23 22 21 22 23 23 20 19 18 19 19 19 19 18 16 15 15 14 13 13 12 11 10 11 11 9 10 11 11 12 12 11 10 10 9
28 28 27 27 26 26 24 24 23 23 24 25 25 23 22 20 19 20 20 19 19 17 16 16 15 14 14 14 13 12 11 12 12 11 11 12 12 11 11 9 8 7
29 29 28 28 27 27 26 26 25 25 24 24 26 24 24 24 22 21 20 21 20 19 17 17 16 16 16 17 16 14 13 12 13 13 12 12 12 11 10 10 9 6
28 29 28 28 28 28 28 27 26 27 26 26 26 26 26 26 25 22 20 22 21 20 19 17 17 17 22 21 18 15 14 14 14 15 14 13 13 12 10 9 8 8
27 28 28 29 29 28 29 28 28 27 27 26 26 26 27 26 26 24 24 23 23 21 20 18 18 21 27 24 21 17 14 14 15 15 15 15 13 13 12 10 8 8
27 28 28 28 28 29 29 29 28 27 27 26 25 27 27 26 27 26 26 25 24 23 21 20 17 26 27 26 23 19 16 12 14 15 15 15 15 13 13 12 10 9
27 27 27 27 28 29 29 28 27 26 27 28 28 29 28 26 26 26 27 27 25 25 24 22 19 29 28 27 24 21 18 14 12 14 14 14 15 14 14 13 12 11
25 26 26 27 28 29 29 28 27 27 27 28 28 28 28 27 26 26 27 27 26 24 24 23 21 33 29 28 25 22 19 16 12 12 12 13 14 14 14 13 13 12
27 25 26 26 27 27 28 27 26 26 26 27 27 27 27 27 27 25 26 26 26 24 23 23 24 33 29 29 27 23 23 18 14 12 11 12 14 14 14 14 14 13
28 25 25 26 27 26 26 27 26 25 25 26 26 26 25 25 24 24 25 25 25 24 21 23 21 29 29 29 29 27 26 19 16 15 13 13 14 15 15 15 15 14
29 26 25 27 26 25 25 26 25 25 24 25 25 24 22 22 22 23 23 22 23 22 21 21 20 28 29 29 30 30 26 20 18 17 15 15 15 15 16 16 15 16
29 26 25 26 26 24 24 25 25 24 24 24 23 23 21 21 21 21 20 20 20 20 22 20 19 27 30 30 30 30 25 20 19 17 16 17 17 17 17 17 16 17
29 25 24 25 25 24 23 24 24 24 24 24 23 23 22 19 19 19 17 18 19 18 21 19 18 23 28 30 30 29 26 21 19 17 17 18 18 19 19 18 18 17
Wind_Direction
225 205 195 186 181 183 186 197 201 208 210 210 203 172 134 132 116 113 103 100 86 85 83 84 82 85 88 87 84 88 92 78 82 55 43 47 31 41 37 41 32 326
223 206 206 204 197 193 188 190 197 202 212 200 176 174 154 149 126 116 108 99 90 85 83 78 75 74 73 73 66 68 70 68 68 67 55 50 57 53 54 47 57 74
222 212 216 218 210 208 198 199 202 202 208 203 166 166 171 158 145 131 119 102 98 88 84 79 71 66 63 65 59 55 53 56 58 63 55 54 55 54 60 51 34 31
226 217 217 219 212 218 210 209 210 207 205 202 173 169 174 171 163 153 138 113 113 90 71 64 60 50 45 44 44 44 40 39 43 51 50 51 51 58 54 54 67 53
236 224 220 220 217 216 218 213 217 221 205 200 187 182 182 179 184 171 169 167 155 81 60 30 19 22 10 11 18 25 24 22 17 22 30 33 37 40 51 50 47 61
234 227 225 226 224 222 223 220 218 222 217 204 193 193 190 188 191 187 196 207 222 195 352 359 351 353 349 346 353 3 10 12 358 4 12 20 28 26 30 35 41 45
244 237 238 231 230 229 223 225 222 219 219 202 202 193 201 202 198 199 210 222 233 252 314 316 325 329 328 326 330 340 352 357 359 345 357 0 7 23 26 24 30 38
249 243 241 235 235 232 225 227 227 223 221 210 204 203 205 211 212 210 216 229 237 265 275 298 303 309 324 316 318 325 341 333 345 343 343 352 352 1 13 20 16 25
250 246 245 248 245 235 233 231 232 230 225 220 210 213 212 213 222 219 226 233 234 248 265 280 288 302 305 304 303 314 331 340 330 339 343 347 348 353 2 3 11 17
254 249 253 254 251 242 241 238 237 234 232 227 222 217 222 221 226 229 236 237 242 248 264 272 285 294 299 299 299 310 323 332 330 330 338 346 347 348 353 355 4 8
261 257 255 257 257 251 254 249 243 240 237 236 232 222 228 232 231 234 239 246 248 257 265 275 286 294 298 301 299 304 319 327 328 325 331 338 341 340 342 344 355 8
263 261 261 262 260 257 260 256 249 246 246 241 238 234 231 237 241 239 242 250 252 258 267 275 281 288 293 298 306 308 310 318 320 326 330 334 337 338 337 336 346 3
269 266 262 261 258 255 254 256 255 253 251 250 245 242 240 239 246 246 245 253 257 260 270 276 282 288 288 295 297 300 305 309 318 324 329 329 334 339 339 337 345 358
272 269 266 259 255 250 250 253 256 254 252 251 250 249 248 247 249 252 251 254 260 262 269 274 281 286 290 292 294 294 298 306 312 319 329 332 334 337 342 342 344 354
270 266 263 261 258 254 251 250 253 254 253 253 253 250 249 252 251 255 257 260 264 266 271 275 281 285 285 289 292 296 298 309 314 318 324 328 332 338 337 337 341 347
273 267 266 265 262 259 254 251 250 252 255 258 257 254 251 250 251 253 260 264 267 271 272 274 278 279 285 300 295 290 301 303 308 311 318 321 324 330 335 335 340 346
280 274 270 269 267 263 259 254 251 249 250 253 256 256 252 251 252 258 259 264 269 271 276 276 278 279 293 297 300 302 299 303 305 308 314 319 323 321 323 327 329 335
291 285 278 273 270 269 266 261 254 251 251 253 257 261 254 254 256 256 255 259 264 271 275 276 278 283 294 298 300 302 298 296 306 307 310 314 317 321 318 319 326 327
294 292 287 280 276 273 270 266 262 257 257 258 261 258 257 253 254 257 258 257 259 267 273 277 277 284 293 298 299 300 304 297 299 307 310 311 313 318 317 314 313 314
294 293 293 288 281 276 273 272 270 265 262 259 256 256 256 256 258 258 257 259 259 262 266 273 275 282 294 296 297 299 302 296 292 303 307 308 309 312 312 314 314 310
297 294 294 291 286 282 278 277 275 268 265 261 259 260 259 258 258 259 258 261 264 265 267 271 270 285 294 296 295 299 299 292 296 291 290 296 300 305 305 310 312 312
295 298 295 292 288 285 283 281 278 273 268 263 259 260 259 259 258 258 261 264 265 267 268 272 271 287 294 296 296 297 295 283 296 294 288 289 294 297 301 301 306 307
293 299 297 294 289 287 285 284 281 276 270 264 262 261 263 262 261 260 258 263 267 268 270 269 271 283 294 295 295 297 285 281 291 290 292 296 293 296 298 301 304 304
290 293 295 294 291 290 287 283 281 275 272 265 264 262 262 262 259 256 258 261 268 271 274 271 271 281 295 295 296 297 294 287 287 290 292 291 291 293 292 294 302 313
287 292 295 296 293 290 284 281 280 277 271 266 263 260 257 254 255 255 256 259 265 270 273 279 272 277 294 293 297 300 296 285 285 286 289 289 290 291 294 293 296 302
285 291 293 293 291 287 280 276 274 273 273 270 266 261 259 256 257 255 257 255 258 264 266 277 273 267 285 297 300 303 307 290 282 284 285 288 289 288 289 294 297 298